Weather in Verkhneye Dubrovo

Russia / Sverdlovsk Oblast     56°45′09″N   61°02′39″E
temp.,
°C
wind,
m/s
gust,
m/s
humid.,
%
clouds,
%
prec.,
mm/h
press.,
hPa
HPBL,
m
20 september, mon
mon2023:00+2nw61169100 0.0 10171302
02:000nw5117642 0.0 1019647
05:00−1wnw411875 0.0 1021427
08:00+1nw4108370 0.0 1022427
11:00+4nnw5863100 0.0 10241275
14:00+5nnw4661100 0.0 10251039
17:00+6nnw4760100 0.0 10261351
20:00+4nnw3968100 0.0 1027779
21 september, tue
tue2123:00+1nnw238713 0.0 102952
02:00−1nw22949 0.0 103020
05:00−2nw22955 0.0 103026
08:000wnw13850 0.0 103091
11:00+7w23525 0.0 1028816
14:00+10w34385 0.0 10261203
17:00+11wnw35385 0.0 10241319
20:00+4wnw226368 0.0 102429
22 september, wed
wed2223:00+2wnw237998 0.0 102449
02:00+1nw23889 0.0 102452
05:000nw22935 0.0 102428
08:00+1nnw138560 0.0 102497
11:00+7nne1157100 0.0 1024559
14:00+10ne11448 0.0 10241086
17:00+10ne224830 0.0 10241189
20:00+5ene117437 0.0 102610
23 september, thu
thu2323:00+3ene118368 0.0 102710
02:00+5e1381100 0.0 1028106
05:00+5ene1281100 0.0 102958
08:00+5e248157 0.0 1030228
11:00+8e23619 0.0 1031895
14:00+10ese224951 0.0 10301397
17:00+10ese22495 0.0 10311195
20:00+5se25710 0.0 103272
24 september, fri
fri2423:00+3sse23845 0.0 103346
02:00+2s26885 0.0 1033113
05:00+1sse288947 0.0 1032155
08:00+2sse278415 0.0 1032168
11:00+10s2355100 0.0 1031466
14:00+14s224720 0.0 1030806
17:00+14sse225085 0.0 1029540
20:00+8sse22724 0.0 102910